Voltar ao catálogo

STARLINK-36360

AtivoComunicaçõesSSO
NORAD 68402·PAYLOAD·🇺🇸 United States

Lançado Mar 26, 2026 de Vandenberg Space Force Base

Loading…

Próximas Passagens (próximas 24 horas)

TLE

AtualizadoSource: CelesTrak SupGP

Época: Sep 15, 2026, 04:03 UTC

1 68402C 26063Y   26258.16923611  .00010750  00000+0  33381-3 0  2580
2 68402  97.2856  39.1227 0001119  86.8857 236.8164 15.33424783    18

Acompanhe STARLINK-36360 em tempo real com AllMySat

Download on the App Store